This demonstration page uses our WeatherBlox Daily Observations layout. Learn more.

Left ArrowRight Arrow

39.08367, -84.50855

Hourly Observations for December 30, 2019

Temp ( °F °C ) Dew Point ( °F °C ) Humidity (%) Winds ( mph kmh ) Pressure ( in mb ) Visibility ( mi km ) Precip ( " mm )
12:53 am 00:53 Cloudy with Light Rain 55 12.8 52 11.1 90 90 SSE 9 15 29.42 996 8 13 0.00 0.00
1:53 am 01:53 Cloudy with Light Rain 56 13.3 53 11.7 90 90 S 10 17 29.41 996 10 16 0.01 0.25
2:02 am 02:02 Cloudy with Light Rain 55 12.8 53 11.7 93 93 S 8 13 29.41 996 10 16 0.00 0.00
2:35 am 02:35 Cloudy 56 13.3 54 12.2 93 93 S 18 30 29.42 996 10 16 0.00 0.00
2:53 am 02:53 Cloudy 57 13.9 54 12.2 90 90 S 20 31 29.41 996 10 16 0.00 0.00
3:53 am 03:53 Cloudy 52 11.1 45 7.2 77 77 WSW 22 35 29.51 999 10 16 0.02 0.51
4:53 am 04:53 Cloudy 51 10.6 45 7.2 80 80 SW 18 30 29.54 1001 10 16 N/A
5:53 am 05:53 Cloudy 51 10.6 44 6.7 77 77 SW 20 31 29.56 1001 10 16 N/A
6:34 am 06:34 Cloudy with Light Rain 49 9.4 43 6.1 80 80 W 24 39 29.60 1002 8 13 0.01 0.25
6:43 am 06:43 Cloudy with Light Rain 48 8.9 42 5.6 80 80 WSW 20 31 29.61 1003 7 11 0.01 0.25
6:53 am 06:53 Cloudy with Light Rain 48 8.9 42 5.6 80 80 WSW 18 30 29.61 1003 7 11 0.01 0.25
7:53 am 07:53 Cloudy 46 7.8 37 2.8 71 71 WSW 20 31 29.65 1004 7 11 0.00 0.00
8:53 am 08:53 Cloudy 43 6.1 35 1.7 74 74 WSW 18 30 29.69 1005 10 16 N/A
9:53 am 09:53 Cloudy 43 6.1 35 1.7 74 74 WSW 14 22 29.71 1006 10 16 N/A
10:53 am 10:53 Cloudy 43 6.1 31 -0.6 63 63 WSW 23 37 29.73 1007 10 16 N/A
11:53 am 11:53 Cloudy 42 5.6 31 -0.6 65 65 SW 18 30 29.72 1006 10 16 N/A
12:53 pm 12:53 Cloudy 42 5.6 32 undefined 68 68 SW 18 30 29.71 1006 10 16 N/A
1:43 pm 13:43 Cloudy 42 5.6 32 undefined 68 68 WSW 16 26 29.74 1007 10 16 N/A
1:53 pm 13:53 Cloudy 42 5.6 31 -0.6 65 65 SW 17 28 29.72 1007 10 16 N/A
2:07 pm 14:07 Cloudy 41 5 31 -0.6 67 67 WSW 15 24 29.75 1007 10 16 N/A
2:53 pm 14:53 Cloudy 41 5 30 -1.1 65 65 WSW 17 28 29.73 1007 10 16 N/A
3:53 pm 15:53 Cloudy 41 5 29 -1.7 62 62 WSW 17 28 29.76 1008 10 16 N/A
4:53 pm 16:53 Cloudy 40 4.4 29 -1.7 65 65 SW 10 17 29.77 1008 10 16 N/A
5:53 pm 17:53 Cloudy 41 5 30 -1.1 65 65 SW 13 20 29.78 1008 10 16 N/A
6:53 pm 18:53 Cloudy 41 5 29 -1.7 62 62 SW 16 26 29.78 1009 10 16 N/A
7:53 pm 19:53 Cloudy 40 4.4 32 undefined 73 73 W 15 24 29.81 1009 10 16 0.00 0.00
8:53 pm 20:53 Cloudy 39 3.9 33 0.6 79 79 SW 15 24 29.80 1009 10 16 0.00 0.00
9:53 pm 21:53 Cloudy 39 3.9 32 undefined 76 76 SW 10 17 29.78 1009 10 16 N/A
10:53 pm 22:53 Cloudy 39 3.9 31 -0.6 73 73 SW 12 19 29.79 1009 10 16 N/A
11:53 pm 23:53 Cloudy 39 3.9 30 -1.1 70 70 SW 14 22 29.78 1008 10 16 N/A

Powered by AerisWeather